SCP
0 0 0 0 0 0 0 0 0 0 0 0 0 0 0 0 0 0 0 0 0 0 0 0 0 0 0 0 0 0 0 0 0 0 0 0 0 0 0 0 0 0 0 0
0 0 0 0 0 0 0 0 0 0 0 0 0 0 0 0 0 0 0 0 0 0 0 0 0 0 0 0 0 0 0 0 0 0 0 0 0 0 0 0 0 0 0 0
0 0 0 0 0 0 0 0 0 0 0 0 0 0 0 0 0 0 0 0 0 0 0 0 0 0 0 0 0 0 0 0 0 0 0 0 0 0 0 0 0 0 0 0
0 0 0 0 0 0 0 0 0 0 0 0 0 0 0 0 0 0 0 0 0 0 0 0 0 0 0 0 0 0 0 0 0 0 0 0 0 0 0 0 0 0 0 0
0 0 0 0 0 0 0 0 0 0 0 0 0 0 0 0 0 0 0 0 0 0 0 0 0 0 0 0 0 0 0 0 0 0 0 0 0 0 0 0 0 0 0 0
0 0 0 0 0 0 0 0 0 0 0 0 0 0 0 0 0 0 0 0 0 0 0 0 0 0 0 0 0 0 0 0 0 0 0 0 0 0 0 0 0 0 0 0
0 0 0 0 0 0 0 0 0 0 0 0 0 0 0 0 0 0 0 0 0 0 0 0 0 0 0 0 0 0 0 0 0 0 0 0 0 0 0 0 0 0 0 0
0 0 0 0 0 0 0 0 0 0 0 0 0 0 0 0 0 0 0 0 0 0 0 0 0 0 0 0 0 0 0 0 0 0 0 0 0 0 0 0 0 0 0 0
0 0 0 0 0 0 0 0 0 0 0 0 0 0 0 0 0 0 0 0 0 0 0 0 0 0 0 0 0 0 0 0 0 0 0 0 0 0 0 0 0 0 0 0
0 0 0 0 0 0 0 0 0 0 0 0 0 0 0 0 0 0 0 0 0 0 0 0 0 0 0 0 0 0 0 0 0 0 0 0 0 0 0 0 0 0 0 0
0 0 0 0 0 0 0 0 0 0 0 0 0 0 0 0 0 0 0 0 0 0 0 0 0 0 0 0 0 0 0 0 0 0 0 0 0 0 0 0 0 0 0 0
0 0 0 0 0 0 0 0 0 0 0 0 0 0 0 0 0 0 0 0 0 0 0 0 0 0 0 0 0 0 0 0 0 0 0 0 0 0 0 0 0 0 0 0
0 0 0 0 0 0 0 0 0 0 0 0 0 0 0 0 0 0 0 0 0 0 0 0 0 0 0 0 0 0 0 0 0 0 0 0 0 0 0 0 0 0 0 0
0 0 0 0 0 0 0 0 0 0 0 0 0 0 0 0 0 0 0 0 0 0 0 0 0 0 0 0 0 0 0 0 0 0 0 0 0 0 0 0 0 0 0 0
0 0 0 0 0 0 0 0 0 0 0 0 0 0 0 0 0 0 0 0 0 -0 0 0 0 0 0 0 0 0 0 0 0 0 0 0 0 0 0 0 0 0 0 0
0 0 0 0 0 0 0 0 0 0 0 0 0 0 0 0 0 0 0 -0 -0 -0 0 0 0 0 0 0 0 0 0 0 0 0 0 0 0 0 0 0 0 0 0 0
0 0 0 0 0 0 0 0 0 0 0 0 0 0 0 0 0 0 -0 -0 -0 -0 0 0 0 0 0 0 0 0 0 0 0 0 0 0 0 0 0 0 0 0 0 0
0 0 0 0 0 0 0 0 0 0 0 0 0 0 0 0 -0 -0 -0 -0 -0 -0 0 0 0 0 0 0 0 0 0 0 0 0 0 0 0 0 0 0 0 0 0 0
0 0 0 0 0 0 -0 0 0 0 0 0 0 0 0 0 -0 -0 -0 -0 -0 0 0 0 0 0 0 0 0 0 0 0 0 0 0 0 0 0 0 0 0 0 0 0
0 0 0 0 0 -0 -0 0 0 0 0 0 0 0 0 0 0 0 0 0 0 0 0 0 0 0 0 0 0 0 0 0 0 0 0 0 0 0 0 0 0 0 0 0
0 0 0 0 -0 -0 -0 0 0 0 0 0 0 0 -0 -0 0 0 0 0 0 0 0 0 0 0 0 0 0 0 0 0 0 0 0 0 0 0 0 0 0 0 0 0
0 0 0 0 0 0 -0 -0 -0 -0 -0 -0 -0 0 0 0 0 0 0 0 0 0 0 0 0 0 0 0 0 0 0 0 0 0 0 0 0 0 0 0 0 0 0 0
0 0 0 0 0 0 0 -0 -0 0 0 0 0 0 0 0 0 0 0 0 0 0 0 0 0 0 0 0 0 0 0 0 0 0 0 0 0 0 0 0 0 0 0 0
0 0 0 0 0 0 0 0 0 0 0 0 0 0 0 0 0 0 0 0 0 0 0 0 0 0 0 0 0 0 0 0 0 0 0 0 0 0 0 0 0 0 0 0
0 0 0 0 0 0 0 0 0 0 0 0 0 0 0 0 0 0 0 0 0 0 0 0 0 0 0 0 0 0 0 0 0 0 0 0 0 0 0 0 0 0 0 0
0 0 0 0 0 0 0 0 0 0 0 0 0 0 0 0 0 0 0 0 0 0 0 0 0 0 0 0 0 0 0 0 0 0 0 0 0 0 0 0 0 0 0 0
0 0 0 0 0 0 0 0 0 0 0 0 0 0 0 0 0 0 -0 0 0 0 0 0 0 0 0 0 0 0 0 0 0 0 0 0 0 0 0 0 0 0 0 0
Wind_Speed
2 2 0 2 4 5 4 3 4 4 6 9 13 14 14 15 16 16 14 12 10 7 6 6 5 4 4 3 2 1 2 4 4 4 5 6 6 5 5 6 8 8 7 6
2 1 2 4 8 7 7 5 5 3 5 3 7 9 13 16 18 18 16 14 12 9 6 5 5 4 3 3 3 3 5 5 4 5 6 7 7 5 5 7 7 4 4 4
3 3 7 8 5 5 5 3 3 5 4 7 7 9 8 10 12 14 14 14 12 11 8 6 4 3 4 3 3 4 5 5 4 5 7 7 7 6 5 6 6 6 5 5
2 1 6 8 2 3 4 4 1 2 2 5 9 9 9 6 8 10 12 12 11 8 6 5 3 3 2 2 4 4 4 5 5 5 5 4 4 5 5 5 5 4 5 6
1 3 7 8 4 2 2 4 3 6 9 12 14 15 11 9 9 8 9 8 7 7 5 5 5 3 2 2 3 4 5 5 5 4 3 5 5 5 5 4 4 4 4 5
3 3 5 4 5 5 3 4 0 8 13 14 11 7 6 9 13 13 10 6 5 6 3 5 4 2 1 2 3 4 4 3 3 4 6 6 5 4 4 4 4 6 6 6
2 4 6 5 10 6 1 6 6 3 12 13 5 8 13 13 14 12 10 7 3 5 6 4 3 2 0 2 3 3 2 4 6 6 6 5 4 4 4 5 6 6 6 6
1 3 5 4 7 2 3 4 1 2 4 10 14 15 16 14 13 11 9 9 6 5 4 2 2 1 1 3 3 2 5 6 5 5 5 4 4 4 5 5 7 8 7 6
4 7 4 2 5 5 4 4 4 5 9 14 15 14 13 12 11 9 8 6 4 5 3 2 1 1 2 3 3 5 6 6 4 5 5 4 4 4 4 5 6 7 7 8
5 7 6 8 10 5 3 6 6 6 10 12 13 13 12 9 8 7 5 4 4 4 2 1 1 1 1 2 5 6 6 5 5 5 5 5 4 4 4 5 6 7 7 7
8 11 12 9 7 3 6 9 12 11 9 10 12 10 9 8 7 6 4 3 4 4 3 0 2 2 2 4 6 7 6 6 4 5 5 5 5 4 4 3 4 6 6 5
8 6 2 3 3 7 13 15 16 14 10 8 8 8 9 7 5 5 4 4 4 4 2 2 3 4 4 5 6 7 6 4 4 4 5 5 5 5 4 3 4 7 10 8
7 3 2 4 8 14 16 15 15 14 12 10 8 8 9 6 4 6 6 5 5 4 3 3 4 5 5 5 7 7 6 5 4 5 4 5 5 5 7 8 8 9 11 12
7 2 8 8 9 12 14 13 12 10 10 9 9 9 8 6 5 6 4 4 5 5 4 4 5 5 5 6 7 8 7 6 5 4 4 5 5 5 6 6 7 7 9 10
10 10 8 11 12 11 11 13 13 10 10 9 8 9 9 7 6 4 4 5 6 6 5 4 5 5 5 7 8 7 6 5 4 5 5 6 6 5 6 6 6 6 8 10
6 5 8 13 13 12 11 11 11 8 9 8 8 8 8 7 5 5 5 5 6 4 3 3 5 5 7 8 8 6 6 7 6 5 5 5 6 7 6 6 6 6 7 8
9 7 9 11 10 8 8 7 8 8 8 9 8 8 7 6 6 5 5 5 5 3 2 3 5 7 8 8 7 6 5 5 6 5 4 4 5 5 6 6 6 6 6 9
8 8 5 8 8 8 7 7 8 8 8 8 7 6 6 7 7 6 4 4 4 4 3 3 6 8 8 7 7 5 5 4 4 4 5 6 6 7 7 7 7 7 7 9
11 7 4 7 6 5 5 6 6 6 7 6 7 6 6 6 7 5 4 4 4 5 4 5 9 9 7 8 8 5 4 4 4 5 5 6 7 7 7 7 7 7 7 7
9 5 5 5 4 4 6 7 8 6 5 6 6 6 5 5 6 6 4 3 2 2 4 5 7 6 6 7 7 5 4 4 4 4 5 5 6 7 7 8 8 8 8 8
10 7 6 5 4 5 7 7 7 6 4 5 6 5 5 5 5 5 4 2 2 3 5 6 6 5 5 5 5 4 3 3 3 3 4 5 6 7 7 7 8 7 7 8
7 8 8 7 7 7 5 6 7 6 5 5 5 6 7 6 5 4 2 2 2 4 4 4 4 6 7 7 5 5 4 4 3 3 4 4 5 5 6 7 7 7 7 8
5 6 7 6 8 8 6 5 6 6 5 5 5 5 5 5 4 4 3 2 3 5 5 4 7 10 10 6 5 6 6 6 5 5 5 4 4 5 5 6 6 7 7 8
5 6 6 6 7 7 6 5 5 4 5 4 3 4 6 5 3 2 2 4 6 7 5 6 9 11 8 5 5 5 5 5 5 5 5 5 4 5 5 5 6 6 7 8
5 6 7 8 7 6 7 6 5 4 5 4 4 4 3 3 4 4 4 5 7 8 6 8 11 10 6 5 5 5 4 4 4 4 4 4 4 5 5 6 6 7 7 7
5 5 5 6 6 7 7 6 4 4 4 3 3 3 3 3 6 5 5 6 6 7 7 5 6 6 5 5 5 5 5 4 5 4 4 4 5 5 5 6 7 6 7 7
5 6 5 4 4 4 5 6 6 4 4 4 4 3 4 4 5 6 6 6 5 5 5 5 5 6 5 5 5 5 4 4 5 5 4 4 4 4 5 6 6 6 6 7
Wind_Direction
209 225 338 284 300 295 271 187 187 207 204 203 180 169 164 152 150 151 150 151 146 140 129 135 153 184 172 183 220 243 262 259 259 269 274 272 272 287 304 282 265 270 287 297
282 280 325 277 277 266 255 232 236 232 251 194 156 158 164 163 160 157 154 154 149 140 147 160 168 179 178 206 242 248 246 248 263 283 290 294 302 310 303 296 297 302 304 322
276 308 338 295 242 220 232 233 174 206 236 141 161 169 173 162 161 154 152 150 142 143 165 169 166 169 174 217 261 259 257 277 290 297 294 293 307 319 319 327 2 20 16 14
249 324 249 254 251 235 254 262 301 317 100 109 104 89 73 92 135 149 144 135 137 146 150 139 151 163 180 237 260 274 284 296 302 300 303 329 3 11 17 26 30 21 11 6
192 222 276 301 329 352 326 275 178 138 117 107 108 88 59 67 85 90 102 116 132 130 138 144 155 174 227 278 292 296 306 313 321 337 3 34 40 33 28 18 13 356 353 351
163 216 247 275 320 333 336 290 266 142 146 147 136 130 125 102 94 85 74 65 92 110 134 144 171 184 248 289 307 321 322 335 17 50 64 61 49 43 29 19 5 355 347 336
177 233 266 299 303 318 251 293 320 167 159 160 139 130 131 121 111 114 118 120 161 145 146 159 177 193 223 313 324 313 350 84 78 73 76 72 59 48 31 18 4 347 332 321
148 241 261 349 342 353 266 275 272 120 139 126 126 128 132 131 130 133 143 149 177 137 130 168 205 160 29 343 334 42 83 83 78 73 68 60 58 47 35 23 7 348 337 335
223 239 250 259 252 261 241 210 153 147 145 140 137 133 130 127 134 144 153 140 142 134 156 216 239 94 20 351 53 90 86 82 76 59 45 38 36 20 8 4 2 351 346 342
275 270 270 281 270 252 196 167 137 135 135 130 125 124 126 125 126 120 124 142 145 138 118 25 26 73 322 49 96 96 91 80 57 38 24 18 9 359 351 352 358 358 348 340
253 279 293 304 301 225 135 119 108 103 105 116 123 118 117 118 124 123 132 130 127 129 132 254 7 18 64 112 105 96 90 73 51 35 29 16 5 355 356 8 20 12 351 338
245 234 239 309 22 115 124 122 118 116 114 111 118 113 110 115 118 119 124 114 108 96 86 42 58 82 95 101 108 106 93 75 53 40 29 21 9 359 356 357 354 12 1 348
268 254 144 120 101 104 115 131 137 139 137 125 107 106 113 114 110 109 108 110 108 106 101 87 97 91 91 106 106 101 95 80 57 42 24 10 10 4 352 358 10 4 356 346
359 83 132 139 133 139 139 130 114 102 99 104 106 106 105 100 106 110 109 110 117 113 95 98 102 97 106 110 104 95 86 76 62 42 25 20 13 1 357 355 352 353 351 344
33 42 95 116 114 116 119 116 108 104 99 92 99 108 105 105 111 104 98 107 104 89 79 103 108 107 118 111 101 94 87 74 62 50 36 22 13 7 2 358 356 356 357 354
94 74 101 113 115 114 112 107 104 98 100 106 106 99 102 113 112 97 93 86 92 94 84 114 120 127 124 111 103 95 87 79 69 55 40 29 19 12 7 8 5 6 6 359
119 109 102 101 102 97 92 98 112 116 116 114 110 109 109 103 94 90 78 71 89 94 80 126 132 123 117 112 108 104 95 77 68 53 33 17 9 10 5 9 10 8 6 4
94 100 103 111 107 104 107 110 111 112 116 115 111 109 108 113 114 104 92 91 86 66 53 111 120 117 117 118 113 109 100 85 63 41 27 22 18 16 14 14 13 11 8 2
106 104 72 77 91 106 117 113 106 107 109 116 119 117 116 119 119 114 112 101 78 67 48 87 110 116 122 128 121 112 102 87 69 55 46 36 28 25 23 20 14 9 8 4
121 127 106 109 120 143 126 115 111 107 120 123 120 120 121 126 130 124 114 92 53 77 116 119 109 112 124 128 120 115 107 91 80 68 52 39 34 29 25 23 22 16 11 10
151 157 135 141 152 137 124 125 118 117 118 108 113 124 126 122 121 120 116 88 23 97 117 116 111 112 117 119 114 109 104 95 85 63 46 47 44 39 33 28 25 19 14 12
141 137 143 164 142 120 120 124 117 113 106 102 115 121 118 122 123 106 85 107 120 116 115 114 115 113 109 104 98 95 91 82 71 66 65 57 49 41 36 32 27 20 16 14
124 127 130 138 135 125 115 117 123 127 122 107 110 115 112 113 123 128 131 131 120 116 117 119 124 117 109 100 97 94 90 84 77 72 66 58 49 40 35 31 28 20 16 15
138 127 117 116 121 125 121 118 122 131 119 97 89 107 123 119 91 57 110 118 116 113 113 120 119 112 106 104 105 101 95 89 82 76 69 60 49 41 35 29 27 21 17 15
133 129 136 139 147 149 134 127 122 118 107 88 67 71 96 113 120 127 112 109 116 112 109 116 114 107 102 103 103 102 98 92 87 79 66 56 46 41 36 31 28 23 19 15
149 147 145 148 154 152 143 138 137 137 122 104 76 73 83 95 104 107 104 103 104 106 112 115 107 103 105 106 104 100 97 93 85 74 65 55 48 43 37 34 29 25 21 17
112 115 118 114 115 126 131 140 143 160 162 144 119 113 113 111 108 109 107 103 100 100 103 105 107 110 113 110 105 101 97 91 87 83 70 57 50 44 37 34 31 27 26 25